sat.trackr.live / text

‹ back to catalog

STARLINK-35197

NORAD 66193 · 2025-243S

PAYLOAD ACTIVE UNKNOWN

§ Identity

Operator
Country
US
Launch date
2025-10-26
Launch site
AFETR
Launch vehicle
Mass (kg)
RCS (m²)

Purposes: comms

External: N2YO · Heavens-Above · Gunter

§ Orbital elements

Epoch: 2026-05-25T00:43:57.277056Z

Period
94.10 min
Inclination
53.1584°
Eccentricity
0.0000999
Mean motion
15.30229756 rev/d
Perigee alt
474.4 km
Apogee alt
475.8 km
Semi-major
6,853.3 km
B*
7.7985e-4
RAAN
250.5328°
Arg perigee
62.0661°
Mean anomaly
298.0440°
Rev number
3,234

§ Raw data

STARLINK-351971 66193U 25243S   26145.03052404  .00022830  00000+0  77985-3 0  99902 66193  53.1584 250.5328 0000999  62.0661 298.0440 15.30229756 32345

JSON: /api/v1/satellites/66193 · /tle

For live sub-satellite position, see the globe view (requires WebGL).

§ Visibility from observer

Set your observer location to see the next 7 days of passes ≥ 10°. The values pass through the URL so the page stays shareable.

No JS? Fill the form by hand. The geolocation button needs JavaScript.